Location: Neuvy Saint Sepulchre
(46.5953°N, 1.8122°E)
Time: 20:42:26
(UTC+01:00)

ISS - Pass Details

Date: 25 March 2023
Orbit: 414 x 422 km, 51.6° (Epoch: 25 March)

Event Time Altitude Azimuth Distance (km) Brightness Sun altitude
Rises 21:04:08 0° 293° (WNW) 2,358 1.7 -19.4°
Reaches altitude 10° 21:06:19 10° 301° (WNW) 1,492 0.3 -19.8°
Maximum altitude 21:09:30 40° 13° (NNE) 626 -2.9 -20.3°
Enters shadow 21:09:40 40° 21° (NNE) 630 -2.9 -20.3°
